Location: Vinland
(47.7731°N, 122.6974°W)
Time: 02:31:16
(UTC+00:00)

S-56A Canister/Altair - Pass Details

Date: 03 April 2023
Orbit: 639 x 2492 km, 38.9° (Epoch: 31 May)

Event Time Altitude Azimuth Distance (km) Brightness Sun altitude
Rises 03:31:50 0° 263° (W) 4,714 12.9 -8.9°
Reaches altitude 10° 03:34:39 10° 259° (W) 3,954 12.2 -9.4°
Maximum altitude 03:45:17 56° 185° (S) 2,459 10.0 -11.1°
Enters shadow 03:57:30 15° 116° (ESE) 4,671 10.8 -13.0°
